RH
87 89 87 84 87 88 89 85 83 86 83 80 80 84 90 88 82 70 77 75 67 69 70 74 65 61 46 42 58 50 60 65 79 83 77 72 86 65 46 39 60 59 66 79 58 81 73 29 29 34 29 33 28 31
88 88 87 89 86 90 87 84 85 85 87 81 85 91 88 89 86 72 84 72 65 68 90 74 86 76 66 35 39 58 45 48 54 62 66 62 97 96 51 68 52 63 49 52 45 42 33 31 26 26 29 27 33 32
86 84 86 90 88 86 86 88 84 84 83 84 87 86 88 91 85 74 87 68 63 68 60 73 83 61 55 56 44 50 46 43 52 43 67 76 94 83 95 60 48 50 47 53 50 30 34 34 26 30 28 29 27 28
92 94 87 83 87 87 86 85 84 84 84 84 89 86 89 87 77 78 75 62 54 60 80 62 83 84 54 55 57 50 42 46 53 57 68 80 89 54 74 54 62 42 50 42 44 35 42 38 32 28 31 34 34 30
92 93 91 91 88 88 88 87 88 87 90 90 90 88 92 84 75 83 70 66 50 59 83 73 57 62 73 67 64 57 59 57 69 77 88 79 64 70 73 66 64 42 42 57 54 31 34 25 28 32 35 39 35 36
89 92 92 92 93 94 93 93 90 90 91 94 93 90 92 84 78 84 96 69 61 65 94 100 83 83 83 74 66 63 58 60 65 63 79 56 61 67 90 63 31 40 37 35 34 37 36 48 42 36 37 36 37 39
86 88 90 91 92 92 92 93 93 93 92 91 90 92 88 82 80 80 71 64 71 66 78 99 97 76 92 89 88 74 62 62 61 68 75 64 71 62 91 70 30 34 39 44 51 52 49 48 41 48 43 42 50 40
87 86 86 86 87 89 89 88 88 88 89 89 91 89 81 75 71 72 82 83 68 75 92 100 99 98 87 100 100 98 91 84 75 69 75 72 75 81 82 46 37 44 49 53 54 56 58 50 50 51 49 50 52 52
89 88 86 86 86 85 85 84 82 82 81 82 84 84 80 74 82 92 91 77 76 86 97 99 100 98 94 98 97 98 98 100 96 98 85 72 86 80 62 58 46 51 57 52 62 60 60 59 57 58 57 55 55 61
90 90 90 88 87 86 86 85 84 83 84 84 75 84 99 85 88 87 94 92 85 91 84 94 78 96 82 100 100 99 100 100 100 97 88 98 75 65 69 68 65 65 63 64 72 76 75 71 68 67 64 62 63 66
90 90 90 89 89 88 87 84 84 80 72 77 93 92 78 93 94 91 99 99 96 96 86 76 80 88 86 88 97 97 100 100 100 94 95 98 85 72 75 83 74 69 64 62 60 60 60 63 68 70 71 73 73 72
94 94 88 89 89 88 87 87 83 77 79 84 84 77 93 78 75 95 99 94 96 87 98 99 96 82 99 88 89 97 99 99 100 97 99 98 98 91 91 91 79 75 71 71 65 67 68 66 67 73 80 88 90 92
93 90 88 88 88 87 86 85 90 94 90 83 72 87 88 100 100 100 99 98 100 100 99 100 100 96 97 94 99 93 100 100 98 100 99 99 98 95 95 91 92 86 84 85 87 81 87 90 90 93 94 95 94 95
94 88 87 85 86 87 90 92 94 94 89 90 100 100 100 99 98 99 100 100 100 100 100 100 100 100 100 100 100 100 100 100 100 97 96 93 98 99 99 99 96 96 96 93 92 91 95 96 97 97 97 98 97 98
92 92 90 93 90 92 93 92 92 92 91 99 94 97 98 100 98 100 100 100 99 100 100 100 100 98 100 100 100 100 100 96 90 91 93 95 100 99 98 98 97 97 97 97 96 96 97 97 96 97 98 97 96 97
86 84 94 96 97 96 95 92 91 90 98 94 90 93 94 96 96 96 98 98 99 100 100 100 100 100 98 92 95 94 82 88 92 94 96 97 98 98 98 98 98 98 97 97 97 96 96 96 95 94 94 95 96 96
89 96 95 93 92 92 88 86 86 96 96 95 96 97 97 96 96 97 98 97 98 100 99 88 89 97 72 80 86 82 91 93 95 94 93 97 97 97 97 97 97 97 95 95 94 93 94 95 94 89 88 89 85 86
96 95 93 90 84 84 88 83 91 92 91 92 93 96 94 96 97 96 95 90 89 78 70 88 66 80 88 86 86 91 90 94 93 92 92 94 94 96 95 96 96 95 94 94 94 94 92 91 86 88 86 84 80 79
94 94 93 94 90 86 93 91 68 82 93 91 87 85 80 85 77 76 80 74 69 64 64 64 78 82 88 86 92 94 94 93 91 89 90 94 94 95 95 95 94 93 89 88 84 85 87 89 88 86 86 83 85 85
96 96 92 86 87 84 90 90 69 77 88 82 69 73 74 74 74 82 78 65 57 59 73 78 87 90 90 90 90 91 90 92 89 88 88 88 89 90 92 88 87 89 85 86 87 87 82 82 82 84 85 84 86 88
91 90 78 72 74 79 86 85 93 75 71 80 85 64 67 70 80 83 79 58 73 73 82 88 91 92 91 90 87 88 89 87 90 88 86 85 87 84 85 87 86 83 83 86 86 87 84 85 81 80 88 90 89 87
78 67 74 67 68 73 72 72 81 78 70 76 73 65 76 84 82 80 59 73 77 88 86 84 84 81 77 85 85 84 89 85 88 84 86 81 84 83 85 87 80 87 85 86 82 87 81 72 74 75 82 84 75 78
65 64 69 72 81 84 76 65 83 70 79 78 74 73 77 78 70 52 78 71 83 85 85 80 82 78 80 87 81 79 76 72 73 74 76 73 70 75 71 70 71 77 75 67 63 70 79 72 74 80 78 78 80 80
61 79 85 84 76 86 80 84 67 71 77 80 75 84 86 80 61 70 79 76 86 81 78 84 75 74 71 75 76 77 71 63 68 74 65 62 66 67 64 66 68 70 69 64 70 77 77 83 79 76 80 79 80 81
82 92 82 89 80 81 88 90 87 81 95 89 85 86 86 70 81 79 79 80 83 88 86 80 75 74 84 84 77 73 67 58 64 67 70 60 67 64 65 65 71 70 71 81 82 82 82 82 81 80 77 80 83 80
96 96 92 91 90 85 87 96 95 93 88 89 91 77 78 78 81 86 73 85 83 89 91 90 87 80 76 68 71 72 69 56 56 71 66 61 63 75 76 75 72 78 74 82 84 82 79 80 82 81 80 77 79 83
96 97 84 73 78 79 88 84 77 83 90 92 87 83 79 87 88 80 78 79 80 89 82 82 75 74 74 72 70 67 63 64 68 65 65 64 66 68 76 80 82 80 75 80 82 84 84 81 81 80 81 79 80 83
86 80 92 91 83 78 90 87 88 92 89 77 71 93 87 83 84 79 78 81 79 77 81 81 76 74 77 78 78 77 78 77 80 74 72 72 72 78 82 82 84 88 82 85 82 80 80 80 81 80 81 82 82 81
91 88 76 94 87 87 91 92 91 84 78 77 86 86 86 76 83 84 83 79 80 80 85 85 87 84 83 81 84 82 79 76 56 60 67 79 80 83 81 82 82 84 85 83 77 81 80 81 82 84 82 85 84 82
92 88 84 88 92 92 94 89 91 88 77 81 74 70 72 82 86 82 83 85 86 90 90 87 87 83 86 83 87 86 87 86 86 83 82 85 88 87 86 85 84 85 87 85 83 78 80 83 81 80 80 82 83 85
85 84 84 81 87 85 85 87 86 82 84 87 85 86 87 87 86 84 85 86 88 88 86 89 91 88 86 86 83 80 84 88 91 89 88 89 88 86 86 86 86 88 86 85 85 85 86 84 83 84 83 84 84 86
91 93 87 89 91 85 90 92 90 89 89 86 91 90 92 87 89 88 89 90 90 89 98 92 88 90 89 88 90 90 99 90 88 90 89 90 86 86 86 85 88 87 85 84 84 85 85 85 86 85 86 84 86 87
91 89 87 89 91 92 89 89 84 90 89 88 90 91 90 84 86 88 88 89 87 85 86 89 90 90 88 87 86 89 82 84 94 100 98 95 99 96 91 87 88 85 85 85 84 85 85 84 84 84 84 87 87 87
Wind_Speed
15 12 8 5 4 5 11 25 25 27 33 31 30 32 39 41 40 10 5 6 7 4 5 5 2 16 18 17 16 15 11 7 6 9 6 5 4 5 8 11 5 9 10 6 7 6 11 12 10 12 12 2 4 7
10 13 10 6 5 13 21 24 26 29 29 29 29 33 38 35 33 13 7 5 3 4 6 3 1 15 17 26 14 16 10 16 9 9 7 5 2 2 7 7 4 6 6 4 10 7 3 20 14 16 6 5 6 9
9 11 12 12 15 19 23 25 26 27 28 28 32 36 34 30 25 12 7 9 5 4 3 2 1 11 13 14 12 10 11 10 11 8 5 4 5 6 6 10 14 8 5 5 3 11 10 11 13 6 10 7 5 8
21 15 7 11 14 17 20 21 24 24 25 29 34 37 35 28 23 14 8 6 6 4 3 6 4 9 11 12 13 13 11 11 5 8 6 4 4 7 6 6 9 5 10 9 10 9 2 10 15 14 10 6 7 11
21 22 17 16 14 16 18 21 23 27 28 30 32 34 31 25 22 12 8 3 4 4 1 4 7 11 13 14 14 15 12 11 6 6 4 5 1 3 2 1 7 8 7 8 7 9 9 12 7 14 14 15 13 17
19 22 24 26 25 23 25 27 29 29 27 26 30 33 30 27 20 8 4 2 2 2 3 3 5 8 6 12 16 18 15 10 5 7 4 5 3 4 5 8 18 13 10 12 9 1 5 1 2 11 13 12 14 16
18 20 23 25 26 28 29 30 30 30 30 28 27 28 28 23 8 5 2 3 11 5 1 4 4 5 8 12 9 11 16 10 9 6 6 5 5 5 3 10 13 12 13 10 3 4 3 8 5 11 8 10 10 12
16 18 21 23 25 27 28 30 30 30 29 28 28 27 24 14 8 3 3 12 11 4 4 4 4 4 2 3 5 2 7 8 10 8 1 7 3 2 6 8 12 3 3 6 7 3 3 3 8 9 12 12 15 15
16 16 18 20 21 24 25 25 27 27 27 27 26 23 9 2 3 2 6 18 2 3 4 3 4 1 1 2 2 3 3 4 2 4 4 5 5 9 1 5 6 4 5 4 5 4 5 3 6 9 10 12 13 13
15 15 16 18 19 21 23 24 25 26 27 28 12 3 3 5 15 17 7 4 2 2 6 4 2 2 2 1 3 3 2 4 4 4 5 4 8 4 5 6 6 3 3 8 5 4 6 9 10 9 11 7 9 13
16 15 14 17 19 20 22 24 27 28 18 3 3 2 4 19 7 2 4 5 6 3 4 4 6 2 3 1 2 1 1 1 4 4 7 4 3 4 11 7 4 3 2 3 6 1 5 11 13 15 15 13 12 13
19 17 15 17 18 19 21 23 27 8 3 2 2 5 3 3 3 3 5 4 3 4 2 2 3 4 3 2 2 1 2 1 2 2 3 3 4 10 9 8 6 3 2 3 5 7 8 10 9 12 16 16 14 14
17 18 20 19 19 19 18 15 11 14 7 3 3 4 2 3 2 3 3 1 2 4 3 4 3 4 1 2 3 2 2 2 1 2 4 4 8 8 9 6 8 8 8 9 10 15 14 15 16 14 17 16 19 15
19 21 23 20 17 17 16 15 12 6 3 3 3 4 4 2 4 2 3 1 2 1 1 1 3 2 1 3 1 2 1 0 3 4 5 7 11 8 7 7 8 10 11 13 13 17 13 18 15 14 14 15 16 15
20 20 23 21 21 18 16 15 8 2 4 6 5 5 5 3 5 5 5 5 4 2 2 2 3 3 3 3 4 2 4 6 7 6 7 9 9 7 8 8 8 9 10 11 11 13 15 16 16 16 15 14 14 14
17 13 6 20 17 20 16 5 4 3 4 4 8 6 8 4 7 7 5 4 3 3 1 2 3 4 7 4 5 8 4 6 6 6 9 8 9 10 11 10 11 11 12 14 14 15 16 16 16 17 16 15 14 14
10 4 13 17 17 14 8 5 4 6 6 6 5 9 8 4 6 6 5 6 3 1 4 4 8 7 3 5 6 6 5 5 7 7 8 11 12 13 13 14 14 15 16 16 16 16 16 15 15 16 18 15 16 15
5 13 17 16 14 9 3 5 5 6 8 7 5 7 6 6 8 6 7 9 4 4 4 6 4 9 7 5 4 4 4 4 6 7 9 12 15 15 14 16 15 16 17 16 15 15 15 15 15 11 14 13 13 12
12 11 14 8 3 3 4 4 4 7 7 3 5 4 3 9 11 10 9 9 10 8 6 6 9 6 5 5 5 5 5 5 6 8 10 14 14 14 15 15 16 16 17 17 16 12 12 16 12 9 9 8 8 7
20 15 15 13 6 3 6 5 3 6 4 3 3 10 11 10 10 11 12 11 10 8 11 9 6 6 5 6 6 5 5 5 5 8 11 11 11 15 16 13 11 13 13 14 14 14 11 11 11 10 9 9 7 7
10 5 7 3 3 6 5 3 5 4 5 4 2 6 8 10 16 16 15 12 13 9 8 8 8 8 9 9 7 8 11 10 10 9 9 9 10 11 11 11 13 12 12 11 11 11 12 10 8 8 8 8 7 7
3 2 2 4 4 5 5 7 4 2 3 4 4 4 5 6 8 11 9 11 9 10 6 7 8 7 10 14 11 13 12 14 14 11 13 11 11 10 11 10 10 11 11 10 9 9 9 8 7 8 8 7 7 7
4 4 4 5 7 7 4 3 5 5 4 3 2 5 5 5 5 4 7 6 6 7 8 8 11 12 12 12 13 15 14 13 11 11 10 10 10 9 9 10 10 9 9 9 8 7 7 9 9 8 7 7 7 7
6 7 7 6 7 5 2 5 4 4 4 4 4 5 5 4 3 6 6 4 5 5 7 8 5 6 8 11 11 10 9 8 9 9 8 8 8 9 9 9 9 9 8 7 7 7 7 7 7 7 7 7 8 7
8 9 5 8 4 5 5 5 5 4 5 5 4 5 4 2 4 5 4 3 4 5 6 6 7 7 8 8 7 8 9 7 7 9 8 6 6 5 7 7 8 8 8 7 7 7 6 6 6 7 7 7 8 8
10 9 6 5 4 5 4 5 5 5 3 4 5 3 2 4 5 5 3 3 4 4 4 5 5 6 7 6 6 6 7 5 5 8 8 7 7 6 5 5 4 6 7 6 6 6 6 6 6 7 6 7 7 8
7 7 5 4 3 5 6 5 4 5 5 5 3 3 3 5 4 4 4 3 3 4 4 4 4 6 7 7 6 6 6 7 8 7 6 6 7 7 6 5 6 5 5 6 5 6 6 6 6 7 7 6 6 7
6 6 6 6 7 6 5 5 5 5 4 3 2 5 4 4 4 3 3 4 5 5 5 5 6 5 5 5 4 3 4 4 5 5 5 5 5 5 5 4 3 5 4 4 5 4 5 5 5 6 6 6 6 6
7 3 4 7 7 8 8 5 4 4 4 3 3 3 3 3 2 2 4 4 4 4 5 5 5 5 5 5 5 5 5 4 2 3 4 3 3 5 4 4 3 4 4 4 5 5 7 5 5 5 6 5 5 5
5 4 6 6 6 7 5 4 4 3 5 5 4 5 4 3 4 2 2 3 3 3 4 4 3 1 3 2 3 4 5 5 5 4 3 4 4 3 3 4 5 4 4 5 5 5 5 4 4 3 4 4 5 5
2 3 6 6 6 4 5 4 4 4 3 5 5 5 5 4 3 4 4 3 4 3 4 4 4 2 3 3 3 3 3 4 4 4 3 1 2 3 4 4 4 4 4 5 5 5 5 4 4 5 6 6 6 6
4 5 5 5 4 5 1 3 3 3 3 3 3 2 3 3 4 3 2 1 2 2 2 1 2 3 3 3 2 3 2 3 3 3 4 3 3 4 5 4 4 4 5 6 5 5 5 6 5 5 6 7 7 7
3 4 5 5 5 5 3 2 3 3 3 2 2 2 2 1 2 3 3 1 2 2 2 2 3 4 4 3 3 2 2 3 4 4 3 4 5 6 5 4 4 5 6 6 5 5 6 7 6 6 7 7 7 8
Wind_Direction
326 341 358 25 46 158 176 174 178 167 168 168 168 167 166 168 175 155 142 188 190 171 124 65 55 201 187 201 187 170 160 174 173 208 213 181 215 208 200 211 185 198 173 179 204 215 244 146 142 207 229 212 211 206
16 23 31 65 85 118 138 143 144 153 158 160 159 159 156 167 168 154 151 135 159 203 82 72 355 283 279 199 191 173 180 169 175 190 211 222 164 70 198 220 176 247 235 212 211 211 181 183 209 220 231 215 193 196
32 28 44 72 84 113 124 135 145 147 153 154 157 156 156 154 156 141 132 145 148 151 166 176 156 262 254 250 252 185 194 171 195 201 183 215 207 160 173 217 239 207 187 244 238 224 221 202 219 227 206 199 190 194
39 42 71 81 99 113 119 128 139 142 148 154 156 152 154 146 130 121 123 155 157 116 244 218 139 271 251 234 236 240 214 195 218 199 233 205 204 208 205 239 214 229 160 211 244 252 256 237 231 218 199 195 186 174
42 45 86 90 105 113 122 131 133 139 137 140 141 147 150 130 114 94 98 98 141 205 217 274 292 249 248 261 227 209 220 196 193 175 187 222 191 189 170 251 223 190 192 193 228 235 217 260 247 205 198 193 183 167
53 58 65 80 93 106 114 118 123 120 120 119 129 132 122 120 118 94 73 291 169 82 60 302 312 250 255 218 205 205 216 218 232 219 215 222 141 213 220 226 238 209 219 228 254 201 250 90 337 180 202 189 177 178
64 70 75 81 83 89 94 100 105 109 110 114 118 112 116 115 105 106 114 119 135 140 154 275 254 217 198 189 188 197 201 204 216 235 224 218 182 221 243 252 242 219 221 212 192 167 226 211 213 160 180 157 155 154
80 79 85 90 93 96 99 103 105 106 110 117 121 119 127 105 96 162 89 140 121 101 37 263 267 272 257 109 126 147 178 189 192 221 229 227 144 220 247 248 252 224 191 205 187 190 328 79 132 143 140 148 147 148
94 96 96 94 98 104 109 113 116 120 122 121 121 119 121 141 136 243 134 145 100 112 225 209 278 16 261 80 101 108 64 145 132 193 223 191 186 221 133 305 275 235 247 214 152 125 120 156 132 141 147 155 147 146
103 102 105 106 105 110 115 117 115 117 117 119 122 93 167 168 111 122 141 156 170 219 229 242 279 310 331 334 76 96 135 149 165 183 148 214 237 74 24 326 317 289 217 155 148 154 158 141 144 144 133 133 136 140
111 120 111 107 105 107 115 122 123 121 121 119 133 130 77 121 178 74 106 176 183 221 218 228 202 282 3 31 74 17 151 228 165 151 194 189 215 24 346 334 9 28 310 288 304 327 172 161 156 145 128 121 127 135
101 116 134 121 128 121 118 121 130 131 143 120 93 95 127 195 103 119 160 155 194 237 235 151 176 150 295 285 113 324 95 325 150 95 190 126 30 346 340 344 2 34 77 60 62 99 113 122 141 133 121 114 109 100
97 102 135 128 110 108 118 129 55 31 342 219 171 118 246 20 86 250 210 219 199 156 197 174 135 146 159 50 62 120 171 127 98 49 64 49 329 347 353 6 26 36 57 79 88 100 93 90 91 97 95 101 97 101
86 100 114 114 109 105 73 63 57 343 22 28 31 59 348 79 35 345 305 50 16 340 274 163 99 100 95 68 38 121 67 139 88 60 52 0 343 344 7 24 52 53 57 74 85 85 85 88 86 86 90 95 106 105
83 92 105 100 103 89 71 55 35 12 33 33 17 44 53 12 11 347 328 330 7 310 245 85 69 60 37 70 21 48 66 64 34 24 355 334 350 8 36 47 51 58 68 70 74 77 77 82 83 78 73 79 82 84
98 74 67 135 138 118 114 86 29 59 62 63 39 355 349 16 359 1 343 306 306 337 357 21 84 73 46 29 53 18 59 50 19 337 328 357 24 41 52 58 64 68 68 68 66 69 70 68 74 77 71 66 69 76
74 73 101 94 88 82 70 77 50 47 28 34 38 24 4 356 327 324 310 311 273 323 55 52 49 41 17 54 52 18 42 21 345 356 1 27 45 52 56 58 58 63 66 68 71 68 69 71 73 71 73 71 75 75
85 121 112 108 91 69 58 46 75 58 58 22 16 12 11 354 341 351 344 352 24 66 49 63 56 41 34 45 56 26 3 358 48 36 34 41 49 51 55 60 59 62 64 63 66 69 70 72 75 77 85 86 87 84
125 123 116 98 84 95 79 49 58 84 46 70 29 17 51 23 22 14 19 26 46 56 88 65 53 39 45 22 358 356 357 18 60 52 49 43 44 55 61 63 64 65 66 67 66 64 62 58 61 64 66 70 73 71
94 87 81 57 49 69 80 65 83 80 66 87 72 51 52 41 24 27 31 35 47 60 50 51 41 28 24 16 13 10 0 40 80 72 56 45 45 53 52 57 60 67 67 63 58 57 62 60 52 52 52 53 61 59
63 18 42 38 72 63 70 61 71 92 128 77 96 57 64 44 36 30 33 20 41 41 66 56 62 53 47 41 48 55 54 54 55 61 66 63 49 55 56 55 57 59 60 56 58 55 51 51 43 42 47 45 45 36
94 85 71 17 81 73 73 24 73 83 72 80 63 44 42 28 26 29 30 41 58 37 42 48 52 56 56 49 49 52 63 69 67 66 61 59 57 52 49 48 55 58 54 51 50 52 51 40 27 39 39 33 35 45
77 44 47 24 74 58 46 352 61 25 62 65 70 53 47 49 39 27 62 40 49 15 35 59 61 60 67 62 63 57 54 63 65 63 64 65 65 61 59 52 47 55 57 49 47 51 51 32 41 33 34 32 24 28
37 49 39 45 45 78 53 41 39 52 51 37 54 64 48 49 56 67 63 54 28 25 40 43 62 81 74 61 56 47 46 60 70 63 55 67 69 61 59 60 57 53 47 46 44 43 36 37 21 33 26 25 25 14
66 18 26 51 35 69 60 50 27 55 64 40 75 66 61 40 70 73 80 87 43 38 39 54 60 65 80 80 73 65 44 53 70 74 49 51 73 84 77 70 60 45 19 26 30 28 31 21 25 19 21 23 10 2
72 22 41 35 44 67 49 75 54 55 58 67 63 69 51 74 77 84 85 83 60 40 36 39 68 87 72 57 72 57 42 41 75 76 55 40 40 45 48 44 48 56 24 16 9 10 20 14 13 5 1 2 356 343
67 52 55 31 70 94 92 73 72 65 61 56 56 59 69 75 90 92 114 48 78 54 50 41 55 82 93 91 77 59 54 51 61 78 81 65 54 41 35 43 49 31 0 6 12 11 8 3 0 357 354 354 358 351
64 43 60 7 65 38 82 59 46 49 56 40 87 45 65 57 98 83 71 94 94 90 84 73 61 70 79 75 66 76 88 93 108 107 110 100 70 62 52 53 43 12 2 14 7 5 7 358 354 353 356 347 349 352
54 27 62 43 53 51 41 35 61 53 3 13 82 88 93 64 50 94 111 116 118 118 110 105 92 98 97 89 69 50 37 22 56 89 75 67 68 59 27 20 17 19 360 339 0 352 345 352 346 346 345 342 342 334
50 1 83 56 49 44 34 9 62 58 38 50 96 109 91 79 47 24 128 140 145 113 88 87 105 141 102 114 101 86 58 41 32 26 34 42 35 8 357 2 355 2 344 345 346 344 358 352 339 341 346 349 359 349
11 66 72 56 69 55 95 106 114 97 62 57 55 70 90 109 106 50 62 75 102 126 135 122 107 79 93 71 50 56 81 75 52 44 21 7 357 349 359 349 349 341 337 336 339 339 342 329 343 338 344 347 348 339
35 54 110 104 118 150 238 20 48 62 53 51 73 89 132 151 149 143 92 198 176 175 98 137 149 123 99 90 78 66 41 347 350 11 358 354 342 352 335 334 328 322 325 322 321 320 325 331 326 332 328 330 334 329
86 74 86 109 125 176 196 144 75 100 70 77 82 48 40 339 133 116 120 351 340 97 110 110 108 113 113 96 63 68 356 4 351 332 341 327 325 321 313 316 321 317 315 313 314 314 314 316 314 321 318 318 319 320